PEGASUS (42784 NORAD) Tracking and Keplerian Element Data

This shows tracking and keplerian element data for the satellite.

Feedback or suggestion? Click here.




ElementValue
Catalog42784
NamePEGASUS
Epoch Orbit5873
Epoch Day195.9306884
Epoch Year2018
RAAN255.2498
Inclination97.3993
Eccentricity0.00118
Argument of Perigee347.4863
Mean Anonmoly12.6078
Mean Motion15.21725359
Decay Rate9.11E-06
L11 42784U 17036V 18195.93068840 .00000911 00000-0 43239-4 0 9990
L22 42784 97.3993 255.2498 0011800 347.4863 12.6078 15.21725359 58734

Live tracking and technical data element details for PEGASUS (NORAD 42784). PEGASUS can be tracked NOW for your location showing map with azimuth and elevation plus other details from your city location.

Track the satellite on the map from your city or location and see movement details for azimuth, elevation, latitude, longitude, range, height, and movement on the map or in text.







IsCatalogInMostPopularTable: catalog: 42784, numindb: 87
Update: records affected: 1



GetName: 42784 PEGASUS

Hit Count: updated at: Sun, 15 Jul 2018 23:14:08 GMT